MDT,Max TemperatureF,Mean TemperatureF,Min TemperatureF,Max Dew PointF,MeanDew PointF,Min DewpointF,Max Humidity, Mean Humidity, Min Humidity, Max Sea Level PressureIn, Mean Sea Level PressureIn, Min Sea Level PressureIn, Max VisibilityMiles, Mean VisibilityMiles, Min VisibilityMiles, Max Wind SpeedMPH, Mean Wind SpeedMPH, Max Gust SpeedMPH,PrecipitationIn, CloudCover, Events, WindDirDegrees
2011-10-1,91,74,57,36,33,29,40,26,12,30.00,29.86,29.78,10,10,10,18,6,23,0.00,1,,215
2011-10-2,83,70,57,42,38,33,44,33,21,29.99,29.90,29.83,10,10,10,26,7,33,0.00,1,,243
2011-10-3,86,69,52,44,40,33,66,43,19,30.05,29.92,29.77,10,10,10,14,6,17,0.00,1,,199
2011-10-4,82,67,52,42,39,33,54,40,25,29.83,29.66,29.54,10,10,10,18,7,23,0.00,3,,247
2011-10-5,77,67,56,47,42,39,62,44,26,29.61,29.46,29.34,10,10,10,17,8,22,0.00,4,,60
2011-10-6,58,53,47,53,48,43,96,82,67,29.56,29.47,29.37,10,10,10,23,8,28,0.14,6,Rain,290
2011-10-7,56,51,46,45,43,40,93,74,55,30.00,29.63,29.41,10,10,8,31,19,39,0.98,8,Rain,288
2011-10-8,56,49,42,41,38,34,96,71,46,30.29,30.22,30.04,10,10,10,14,4,15,0.07,5,Rain,252
2011-10-9,62,49,35,37,35,33,92,64,36,30.25,30.07,29.89,10,10,10,17,4,20,0.00,0,Fog,203
2011-10-10,65,54,42,37,34,30,76,53,30,29.87,29.77,29.64,10,10,10,18,12,23,0.00,2,,237
2011-10-11,62,55,48,45,37,31,59,50,41,29.89,29.71,29.60,10,10,10,32,14,41,0.02,5,Rain,253
2011-10-12,63,54,44,31,28,24,53,38,23,30.05,30.00,29.93,10,10,10,31,16,38,0.00,2,,292
2011-10-13,60,51,41,34,29,25,70,49,28,30.10,30.04,29.98,10,10,10,21,9,26,0.00,5,,252
2011-10-14,53,46,38,35,32,26,82,62,41,30.14,30.06,29.97,10,10,10,12,5,22,0.00,5,,196
2011-10-15,48,43,37,43,38,32,92,80,67,30.15,30.00,29.83,10,10,8,26,6,30,0.12,6,Rain,324
2011-10-16,52,45,37,40,34,30,89,70,50,30.19,30.09,29.97,10,10,10,12,5,15,0.06,5,Rain,30
2011-10-17,57,47,36,41,31,22,89,58,26,30.31,30.24,30.10,10,10,10,21,10,26,0.01,4,Fog-Rain,299
2011-10-18,58,48,37,32,28,25,70,49,28,30.45,30.35,30.21,10,10,10,17,8,21,0.00,0,,236
2011-10-19,61,51,40,39,32,28,70,53,35,30.19,30.00,29.87,10,10,10,20,7,23,0.00,1,,232
2011-10-20,68,57,46,38,33,29,58,42,26,30.02,29.95,29.88,10,10,10,25,11,31,T,2,,254
2011-10-21,60,54,48,46,42,37,86,67,47,30.16,30.09,30.00,10,10,10,16,6,21,0.02,5,Rain,228
2011-10-22,66,56,46,40,35,24,76,48,20,30.12,30.03,29.94,10,10,10,25,13,32,T,3,Rain,259
2011-10-23,69,58,46,39,34,30,71,48,24,30.03,29.98,29.93,10,10,10,24,10,31,T,4,,304
2011-10-24,53,47,40,43,38,36,92,76,59,30.09,29.95,29.89,10,10,9,20,8,22,0.22,6,Rain,357
2011-10-25,46,38,30,32,26,22,85,64,42,30.38,30.26,30.09,10,10,10,21,12,25,0.00,2,,323
2011-10-26,46,37,28,28,23,19,92,65,37,30.40,30.25,30.06,10,10,10,22,10,25,0.00,1,,228
2011-10-27,53,42,31,21,18,15,61,43,24,30.23,30.10,30.01,10,10,10,28,13,33,0.00,3,,274
2011-10-28,53,41,29,23,19,16,69,48,26,30.30,30.14,29.84,10,10,10,22,12,23,0.00,2,,239
2011-10-29,57,47,37,31,19,15,41,33,24,30.12,29.93,29.77,10,10,10,48,15,58,T,3,Rain,288
2011-10-30,59,45,30,25,22,19,69,47,24,30.22,30.07,29.92,10,10,10,29,15,38,0.00,0,,234
2011-10-31,64,53,41,41,32,25,76,55,34,30.07,29.89,29.78,10,10,10,26,11,32,0.02,5,Rain,258